QPF
0.00 0.00 0.00 0.00 0.00 0.00 0.00 0.01 0.01 0.02 0.01 0.01 0.02 0.01 0.01 0.01 0.00 0.00 0.00 0.00 0.00 0.00 0.01 0.01 0.01 0.01 0.01 0.02 0.03 0.03 0.03 0.04 0.04 0.04 0.03 0.02 0.02 0.02 0.02 0.01 0.01 0.00 0.00
0.01 0.00 0.00 0.00 0.00 0.00 0.00 0.00 0.00 0.00 0.01 0.01 0.02 0.01 0.01 0.00 0.00 0.00 0.00 0.00 0.00 0.00 0.00 0.01 0.02 0.02 0.02 0.02 0.03 0.03 0.03 0.04 0.03 0.03 0.03 0.03 0.03 0.02 0.01 0.01 0.01 0.00 0.00
0.01 0.00 0.00 0.01 0.00 0.00 0.00 0.00 0.00 0.00 0.00 0.01 0.01 0.01 0.01 0.01 0.01 0.01 0.00 0.00 0.00 0.00 0.00 0.01 0.02 0.03 0.02 0.02 0.02 0.02 0.03 0.04 0.04 0.03 0.02 0.03 0.03 0.03 0.01 0.01 0.00 0.00 0.01
0.00 0.00 0.00 0.00 0.00 0.00 0.00 0.00 0.00 0.01 0.00 0.00 0.01 0.01 0.02 0.02 0.01 0.01 0.01 0.01 0.01 0.01 0.01 0.01 0.01 0.02 0.02 0.01 0.01 0.02 0.02 0.04 0.06 0.04 0.02 0.02 0.01 0.02 0.02 0.01 0.00 0.00 0.00
0.00 0.00 0.00 0.00 0.00 0.00 0.00 0.00 0.01 0.01 0.01 0.00 0.01 0.01 0.01 0.01 0.01 0.01 0.01 0.01 0.01 0.01 0.01 0.01 0.01 0.02 0.01 0.01 0.01 0.02 0.02 0.02 0.03 0.03 0.02 0.02 0.01 0.01 0.01 0.01 0.01 0.01 0.00
0.00 0.00 0.00 0.00 0.00 0.00 0.00 0.00 0.00 0.01 0.01 0.01 0.01 0.00 0.00 0.01 0.01 0.00 0.00 0.01 0.01 0.00 0.00 0.01 0.01 0.01 0.01 0.01 0.01 0.01 0.01 0.01 0.02 0.02 0.02 0.02 0.01 0.01 0.01 0.01 0.01 0.01 0.01
0.00 0.00 0.00 0.00 0.00 0.00 0.00 0.00 0.00 0.00 0.01 0.01 0.01 0.01 0.01 0.01 0.01 0.01 0.01 0.01 0.01 0.00 0.00 0.00 0.01 0.02 0.02 0.01 0.01 0.01 0.01 0.01 0.02 0.02 0.01 0.01 0.01 0.01 0.01 0.00 0.00 0.01 0.01
0.01 0.01 0.01 0.01 0.01 0.00 0.00 0.00 0.00 0.00 0.01 0.01 0.01 0.01 0.02 0.02 0.01 0.01 0.01 0.01 0.02 0.02 0.01 0.00 0.01 0.01 0.01 0.01 0.01 0.01 0.01 0.01 0.02 0.01 0.01 0.01 0.01 0.01 0.01 0.01 0.01 0.01 0.01
0.01 0.01 0.00 0.00 0.00 0.00 0.00 0.00 0.00 0.00 0.00 0.00 0.00 0.01 0.02 0.02 0.02 0.01 0.01 0.01 0.01 0.02 0.02 0.01 0.01 0.01 0.01 0.00 0.01 0.01 0.01 0.01 0.01 0.01 0.01 0.01 0.01 0.01 0.01 0.01 0.01 0.01 0.02
0.00 0.00 0.00 0.00 0.01 0.00 0.00 0.00 0.00 0.00 0.00 0.00 0.00 0.01 0.01 0.01 0.01 0.01 0.01 0.01 0.01 0.01 0.01 0.01 0.01 0.01 0.01 0.01 0.01 0.01 0.01 0.01 0.02 0.03 0.02 0.02 0.02 0.02 0.01 0.01 0.02 0.02 0.02
0.00 0.00 0.00 0.01 0.01 0.00 0.00 0.00 0.00 0.00 0.00 0.00 0.00 0.01 0.01 0.01 0.00 0.00 0.00 0.01 0.01 0.01 0.01 0.01 0.02 0.01 0.01 0.01 0.01 0.01 0.01 0.02 0.03 0.03 0.03 0.03 0.02 0.02 0.02 0.02 0.02 0.02 0.02
0.02 0.02 0.02 0.02 0.02 0.01 0.00 0.00 0.00 0.00 0.00 0.00 0.00 0.01 0.01 0.01 0.00 0.00 0.00 0.00 0.00 0.01 0.01 0.01 0.01 0.01 0.01 0.01 0.01 0.01 0.01 0.02 0.02 0.02 0.03 0.02 0.02 0.03 0.02 0.01 0.01 0.01 0.01
0.02 0.01 0.01 0.02 0.02 0.01 0.01 0.01 0.01 0.00 0.00 0.00 0.01 0.01 0.01 0.00 0.00 0.00 0.00 0.00 0.00 0.01 0.01 0.01 0.01 0.01 0.02 0.02 0.02 0.02 0.01 0.01 0.01 0.01 0.01 0.02 0.02 0.02 0.01 0.01 0.00 0.01 0.01
0.02 0.01 0.02 0.03 0.02 0.01 0.01 0.01 0.01 0.00 0.00 0.00 0.00 0.01 0.01 0.01 0.00 0.00 0.00 0.00 0.00 0.01 0.01 0.02 0.01 0.01 0.02 0.02 0.02 0.01 0.01 0.01 0.02 0.02 0.02 0.02 0.02 0.02 0.01 0.01 0.01 0.01 0.02
0.01 0.01 0.01 0.02 0.02 0.01 0.02 0.02 0.01 0.00 0.01 0.01 0.00 0.01 0.01 0.01 0.00 0.00 0.00 0.00 0.00 0.00 0.01 0.02 0.01 0.01 0.01 0.01 0.01 0.01 0.01 0.02 0.03 0.02 0.02 0.02 0.03 0.02 0.02 0.01 0.01 0.02 0.02
0.00 0.01 0.01 0.01 0.01 0.01 0.01 0.02 0.01 0.01 0.01 0.01 0.01 0.01 0.01 0.00 0.00 0.00 0.00 0.00 0.00 0.00 0.00 0.01 0.01 0.01 0.01 0.01 0.02 0.03 0.03 0.02 0.02 0.02 0.02 0.02 0.02 0.02 0.02 0.02 0.01 0.01 0.01
0.00 0.00 0.00 0.01 0.01 0.01 0.01 0.01 0.01 0.01 0.01 0.01 0.01 0.01 0.00 0.00 0.00 0.00 0.00 0.00 0.00 0.00 0.00 0.00 0.00 0.01 0.00 0.00 0.01 0.02 0.03 0.03 0.02 0.01 0.01 0.01 0.01 0.01 0.01 0.01 0.01 0.01 0.01
0.00 0.00 0.00 0.00 0.01 0.01 0.01 0.01 0.01 0.01 0.01 0.00 0.00 0.00 0.00 0.00 0.00 0.00 0.00 0.00 0.00 0.00 0.00 0.00 0.00 0.01 0.00 0.00 0.00 0.00 0.01 0.03 0.02 0.01 0.01 0.01 0.01 0.01 0.01 0.01 0.01 0.01 0.01
0.00 0.00 0.00 0.00 0.00 0.01 0.01 0.01 0.01 0.01 0.01 0.00 0.00 0.00 0.00 0.00 0.00 0.00 0.00 0.00 0.00 0.00 0.00 0.00 0.00 0.00 0.00 0.00 0.00 0.00 0.00 0.01 0.02 0.01 0.01 0.01 0.01 0.01 0.01 0.01 0.01 0.01 0.00
0.00 0.00 0.00 0.00 0.00 0.00 0.01 0.01 0.01 0.00 0.00 0.00 0.00 0.00 0.01 0.01 0.01 0.00 0.00 0.00 0.01 0.00 0.01 0.01 0.00 0.00 0.00 0.00 0.00 0.00 0.00 0.01 0.01 0.01 0.01 0.01 0.01 0.01 0.01 0.01 0.01 0.01 0.00
0.00 0.00 0.00 0.00 0.00 0.00 0.00 0.01 0.01 0.01 0.01 0.01 0.01 0.01 0.01 0.01 0.01 0.01 0.00 0.00 0.01 0.01 0.00 0.00 0.00 0.00 0.00 0.00 0.00 0.00 0.00 0.01 0.01 0.01 0.01 0.01 0.01 0.01 0.00 0.00 0.01 0.01 0.01
0.00 0.00 0.00 0.00 0.00 0.00 0.00 0.00 0.00 0.00 0.01 0.01 0.01 0.01 0.01 0.01 0.01 0.01 0.01 0.01 0.01 0.01 0.01 0.01 0.01 0.01 0.01 0.01 0.01 0.01 0.01 0.01 0.01 0.01 0.01 0.01 0.01 0.01 0.01 0.00 0.01 0.01 0.01
0.00 0.00 0.00 0.00 0.00 0.00 0.00 0.00 0.00 0.00 0.01 0.01 0.01 0.01 0.01 0.01 0.01 0.01 0.01 0.01 0.01 0.01 0.01 0.01 0.01 0.01 0.01 0.01 0.01 0.02 0.02 0.01 0.01 0.01 0.01 0.01 0.01 0.01 0.01 0.00 0.01 0.00 0.00
0.00 0.00 0.00 0.01 0.01 0.01 0.01 0.00 0.00 0.00 0.01 0.01 0.02 0.01 0.02 0.02 0.02 0.02 0.02 0.02 0.01 0.02 0.02 0.02 0.01 0.01 0.01 0.02 0.02 0.02 0.03 0.02 0.02 0.02 0.02 0.01 0.01 0.01 0.01 0.01 0.01 0.01 0.01
0.00 0.00 0.00 0.00 0.01 0.01 0.01 0.01 0.00 0.01 0.01 0.01 0.01 0.01 0.01 0.02 0.02 0.03 0.03 0.03 0.03 0.02 0.03 0.02 0.01 0.01 0.01 0.02 0.02 0.02 0.02 0.02 0.02 0.02 0.02 0.01 0.01 0.01 0.01 0.01 0.01 0.01 0.01
0.00 0.00 0.00 0.00 0.01 0.01 0.01 0.01 0.01 0.02 0.02 0.03 0.02 0.02 0.01 0.02 0.02 0.02 0.02 0.02 0.02 0.02 0.02 0.02 0.02 0.02 0.02 0.03 0.03 0.03 0.03 0.02 0.02 0.02 0.02 0.02 0.01 0.01 0.01 0.01 0.01 0.01 0.01
MSLP
1019.98 1019.83 1019.78 1019.82 1019.88 1019.95 1020.01 1020.06 1020.12 1020.19 1020.28 1020.40 1020.54 1020.68 1020.80 1020.88 1020.90 1020.86 1020.76 1020.63 1020.46 1020.30 1020.16 1020.05 1019.98 1019.94 1019.93 1019.94 1019.97 1020.02 1020.08 1020.17 1020.29 1020.45 1020.65 1020.88 1021.14 1021.41 1021.68 1021.94 1022.17 1022.39 1022.58
1020.44 1020.34 1020.34 1020.40 1020.47 1020.52 1020.55 1020.57 1020.59 1020.65 1020.74 1020.88 1021.06 1021.24 1021.41 1021.54 1021.60 1021.60 1021.53 1021.42 1021.28 1021.15 1021.03 1020.95 1020.91 1020.88 1020.87 1020.87 1020.87 1020.87 1020.88 1020.91 1020.97 1021.08 1021.24 1021.46 1021.71 1021.99 1022.29 1022.59 1022.87 1023.14 1023.38
1020.86 1020.85 1020.92 1021.02 1021.09 1021.13 1021.13 1021.10 1021.09 1021.11 1021.20 1021.35 1021.55 1021.78 1021.99 1022.17 1022.28 1022.32 1022.29 1022.21 1022.11 1022.01 1021.94 1021.89 1021.87 1021.86 1021.85 1021.84 1021.81 1021.76 1021.72 1021.70 1021.71 1021.78 1021.91 1022.11 1022.35 1022.64 1022.95 1023.26 1023.57 1023.86 1024.14
1021.19 1021.30 1021.46 1021.61 1021.71 1021.74 1021.71 1021.64 1021.59 1021.59 1021.66 1021.81 1022.03 1022.29 1022.55 1022.77 1022.93 1023.01 1023.02 1022.99 1022.93 1022.87 1022.83 1022.81 1022.82 1022.83 1022.83 1022.80 1022.75 1022.69 1022.61 1022.55 1022.54 1022.58 1022.68 1022.86 1023.09 1023.37 1023.67 1023.98 1024.27 1024.56 1024.83
1021.42 1021.65 1021.91 1022.13 1022.26 1022.30 1022.25 1022.16 1022.08 1022.05 1022.11 1022.27 1022.50 1022.79 1023.08 1023.34 1023.53 1023.66 1023.71 1023.72 1023.70 1023.68 1023.68 1023.69 1023.72 1023.75 1023.75 1023.74 1023.68 1023.60 1023.52 1023.45 1023.42 1023.45 1023.55 1023.71 1023.93 1024.18 1024.45 1024.72 1024.98 1025.22 1025.44
1021.55 1021.91 1022.27 1022.55 1022.72 1022.78 1022.73 1022.64 1022.54 1022.51 1022.56 1022.72 1022.96 1023.26 1023.57 1023.85 1024.08 1024.24 1024.33 1024.38 1024.40 1024.42 1024.45 1024.49 1024.54 1024.59 1024.61 1024.60 1024.56 1024.49 1024.42 1024.36 1024.34 1024.38 1024.48 1024.63 1024.83 1025.05 1025.27 1025.48 1025.67 1025.84 1025.99
1021.62 1022.08 1022.52 1022.87 1023.09 1023.17 1023.14 1023.06 1022.97 1022.94 1023.00 1023.15 1023.40 1023.70 1024.02 1024.32 1024.56 1024.75 1024.87 1024.95 1025.00 1025.06 1025.12 1025.19 1025.27 1025.33 1025.37 1025.38 1025.36 1025.31 1025.27 1025.24 1025.25 1025.31 1025.42 1025.58 1025.75 1025.94 1026.11 1026.25 1026.36 1026.44 1026.51
1021.68 1022.20 1022.69 1023.09 1023.35 1023.47 1023.48 1023.42 1023.36 1023.35 1023.42 1023.59 1023.83 1024.12 1024.44 1024.73 1024.98 1025.18 1025.32 1025.43 1025.52 1025.60 1025.69 1025.79 1025.89 1025.98 1026.04 1026.07 1026.07 1026.06 1026.05 1026.06 1026.11 1026.20 1026.33 1026.49 1026.66 1026.81 1026.93 1027.01 1027.04 1027.04 1027.02
1021.73 1022.28 1022.80 1023.22 1023.51 1023.67 1023.73 1023.73 1023.72 1023.75 1023.84 1024.01 1024.25 1024.54 1024.83 1025.11 1025.35 1025.55 1025.70 1025.83 1025.95 1026.07 1026.19 1026.32 1026.44 1026.55 1026.63 1026.68 1026.71 1026.72 1026.75 1026.79 1026.88 1027.00 1027.16 1027.33 1027.50 1027.63 1027.71 1027.74 1027.72 1027.65 1027.57
1021.78 1022.32 1022.84 1023.27 1023.59 1023.79 1023.91 1023.98 1024.03 1024.11 1024.24 1024.43 1024.67 1024.94 1025.21 1025.46 1025.68 1025.87 1026.03 1026.18 1026.32 1026.47 1026.63 1026.79 1026.94 1027.06 1027.16 1027.23 1027.27 1027.31 1027.36 1027.44 1027.55 1027.71 1027.89 1028.07 1028.24 1028.37 1028.44 1028.44 1028.39 1028.29 1028.17
1021.77 1022.29 1022.79 1023.22 1023.56 1023.82 1024.00 1024.15 1024.29 1024.44 1024.62 1024.84 1025.08 1025.33 1025.57 1025.79 1025.99 1026.16 1026.33 1026.50 1026.67 1026.85 1027.05 1027.24 1027.41 1027.56 1027.67 1027.75 1027.80 1027.85 1027.91 1028.00 1028.14 1028.31 1028.50 1028.70 1028.88 1029.01 1029.09 1029.09 1029.03 1028.94 1028.81
1021.65 1022.14 1022.61 1023.03 1023.40 1023.72 1023.99 1024.23 1024.46 1024.70 1024.94 1025.20 1025.45 1025.69 1025.91 1026.10 1026.28 1026.45 1026.62 1026.80 1027.00 1027.23 1027.46 1027.68 1027.88 1028.05 1028.17 1028.25 1028.31 1028.35 1028.41 1028.51 1028.64 1028.82 1029.02 1029.23 1029.42 1029.56 1029.65 1029.67 1029.64 1029.56 1029.46
1021.37 1021.82 1022.27 1022.70 1023.10 1023.47 1023.83 1024.18 1024.51 1024.85 1025.17 1025.47 1025.75 1025.99 1026.20 1026.38 1026.54 1026.71 1026.89 1027.10 1027.33 1027.59 1027.86 1028.12 1028.35 1028.53 1028.66 1028.74 1028.79 1028.83 1028.88 1028.96 1029.09 1029.26 1029.46 1029.67 1029.86 1030.02 1030.12 1030.17 1030.16 1030.11 1030.04
1020.88 1021.31 1021.75 1022.19 1022.63 1023.07 1023.52 1023.97 1024.41 1024.84 1025.25 1025.61 1025.93 1026.19 1026.41 1026.59 1026.76 1026.94 1027.14 1027.37 1027.64 1027.94 1028.25 1028.54 1028.79 1028.99 1029.12 1029.20 1029.25 1029.27 1029.31 1029.38 1029.49 1029.65 1029.83 1030.03 1030.23 1030.39 1030.50 1030.56 1030.58 1030.56 1030.51
1020.20 1020.62 1021.06 1021.51 1021.99 1022.50 1023.03 1023.58 1024.13 1024.66 1025.15 1025.58 1025.95 1026.25 1026.50 1026.70 1026.90 1027.10 1027.33 1027.60 1027.91 1028.24 1028.58 1028.90 1029.17 1029.39 1029.53 1029.61 1029.65 1029.67 1029.70 1029.76 1029.85 1029.99 1030.16 1030.34 1030.52 1030.67 1030.78 1030.85 1030.87 1030.86 1030.83
1019.35 1019.78 1020.22 1020.69 1021.21 1021.77 1022.38 1023.01 1023.65 1024.27 1024.84 1025.35 1025.79 1026.15 1026.44 1026.69 1026.92 1027.17 1027.44 1027.75 1028.09 1028.46 1028.83 1029.17 1029.46 1029.68 1029.84 1029.93 1029.97 1029.99 1030.02 1030.07 1030.16 1030.28 1030.44 1030.60 1030.76 1030.89 1030.98 1031.03 1031.03 1031.01 1030.98
1018.42 1018.84 1019.29 1019.78 1020.32 1020.93 1021.58 1022.28 1022.99 1023.68 1024.34 1024.92 1025.43 1025.86 1026.22 1026.53 1026.82 1027.12 1027.44 1027.79 1028.17 1028.56 1028.95 1029.30 1029.61 1029.84 1030.01 1030.11 1030.18 1030.21 1030.25 1030.31 1030.40 1030.52 1030.66 1030.80 1030.94 1031.04 1031.10 1031.11 1031.09 1031.04 1030.98
1017.45 1017.89 1018.34 1018.83 1019.39 1020.01 1020.70 1021.43 1022.19 1022.94 1023.65 1024.31 1024.89 1025.39 1025.83 1026.22 1026.58 1026.94 1027.31 1027.70 1028.10 1028.51 1028.91 1029.28 1029.59 1029.84 1030.02 1030.15 1030.24 1030.30 1030.37 1030.45 1030.56 1030.68 1030.82 1030.95 1031.06 1031.13 1031.15 1031.13 1031.07 1030.99 1030.89
1016.53 1016.96 1017.41 1017.91 1018.46 1019.08 1019.77 1020.51 1021.30 1022.08 1022.84 1023.56 1024.21 1024.79 1025.31 1025.78 1026.21 1026.63 1027.04 1027.47 1027.90 1028.32 1028.72 1029.08 1029.40 1029.66 1029.86 1030.02 1030.14 1030.25 1030.36 1030.48 1030.61 1030.75 1030.90 1031.02 1031.11 1031.16 1031.16 1031.10 1031.01 1030.89 1030.76
1015.68 1016.10 1016.54 1017.02 1017.56 1018.16 1018.84 1019.58 1020.37 1021.17 1021.96 1022.73 1023.44 1024.09 1024.68 1025.22 1025.72 1026.19 1026.65 1027.10 1027.54 1027.97 1028.37 1028.73 1029.05 1029.32 1029.55 1029.74 1029.91 1030.07 1030.23 1030.39 1030.56 1030.73 1030.89 1031.01 1031.10 1031.13 1031.11 1031.03 1030.92 1030.78 1030.63
1014.89 1015.31 1015.73 1016.19 1016.71 1017.29 1017.95 1018.67 1019.44 1020.25 1021.06 1021.86 1022.61 1023.32 1023.98 1024.58 1025.13 1025.65 1026.15 1026.61 1027.06 1027.48 1027.87 1028.23 1028.56 1028.85 1029.10 1029.34 1029.55 1029.77 1029.98 1030.19 1030.41 1030.60 1030.78 1030.91 1031.00 1031.03 1031.00 1030.92 1030.80 1030.66 1030.51
1014.16 1014.56 1014.97 1015.42 1015.91 1016.46 1017.09 1017.79 1018.55 1019.35 1020.17 1020.98 1021.77 1022.52 1023.23 1023.87 1024.47 1025.02 1025.54 1026.01 1026.46 1026.88 1027.27 1027.63 1027.96 1028.27 1028.56 1028.84 1029.11 1029.38 1029.65 1029.91 1030.15 1030.38 1030.57 1030.72 1030.81 1030.84 1030.82 1030.75 1030.64 1030.51 1030.38
1013.45 1013.83 1014.23 1014.66 1015.14 1015.67 1016.28 1016.95 1017.69 1018.48 1019.30 1020.12 1020.93 1021.71 1022.44 1023.12 1023.74 1024.31 1024.84 1025.32 1025.77 1026.19 1026.58 1026.95 1027.30 1027.64 1027.97 1028.29 1028.62 1028.94 1029.25 1029.55 1029.82 1030.07 1030.27 1030.42 1030.51 1030.55 1030.53 1030.47 1030.39 1030.29 1030.19
1012.74 1013.11 1013.50 1013.91 1014.37 1014.89 1015.48 1016.14 1016.86 1017.64 1018.45 1019.27 1020.09 1020.87 1021.62 1022.31 1022.95 1023.53 1024.07 1024.55 1025.00 1025.42 1025.83 1026.21 1026.59 1026.97 1027.34 1027.72 1028.09 1028.46 1028.80 1029.13 1029.42 1029.67 1029.87 1030.01 1030.10 1030.14 1030.13 1030.09 1030.03 1029.96 1029.90
1012.03 1012.38 1012.75 1013.16 1013.61 1014.11 1014.69 1015.33 1016.04 1016.80 1017.60 1018.42 1019.23 1020.02 1020.77 1021.47 1022.11 1022.70 1023.23 1023.73 1024.18 1024.62 1025.04 1025.45 1025.87 1026.29 1026.71 1027.13 1027.55 1027.95 1028.33 1028.67 1028.96 1029.20 1029.39 1029.51 1029.58 1029.61 1029.60 1029.57 1029.54 1029.50 1029.48
1011.32 1011.65 1012.01 1012.39 1012.83 1013.32 1013.88 1014.51 1015.20 1015.95 1016.73 1017.54 1018.34 1019.13 1019.87 1020.58 1021.22 1021.81 1022.35 1022.86 1023.33 1023.79 1024.23 1024.68 1025.14 1025.60 1026.07 1026.53 1026.99 1027.42 1027.81 1028.15 1028.44 1028.66 1028.82 1028.91 1028.96 1028.97 1028.96 1028.93 1028.91 1028.90 1028.91
Thickness
5749 5750 5748 5747 5746 5744 5743 5740 5737 5736 5733 5730 5727 5724 5723 5724 5724 5724 5723 5722 5721 5720 5719 5718 5716 5714 5712 5710 5709 5707 5705 5704 5704 5700 5697 5699 5701 5700 5699 5698 5697 5696 5695
5745 5745 5745 5744 5743 5741 5740 5738 5735 5734 5732 5729 5727 5725 5724 5722 5722 5721 5720 5719 5718 5718 5717 5715 5712 5710 5708 5706 5705 5704 5701 5700 5701 5697 5691 5686 5688 5692 5695 5694 5693 5692 5691
5741 5741 5741 5740 5740 5738 5737 5737 5734 5732 5730 5728 5726 5723 5721 5719 5717 5716 5715 5716 5715 5715 5713 5712 5710 5708 5706 5703 5702 5701 5698 5694 5697 5697 5691 5683 5678 5682 5686 5689 5689 5688 5687
5742 5740 5738 5737 5737 5737 5737 5736 5733 5731 5729 5726 5722 5718 5714 5711 5712 5713 5713 5713 5713 5712 5710 5709 5708 5706 5704 5701 5700 5699 5697 5694 5690 5692 5693 5691 5687 5679 5675 5680 5683 5684 5683
5740 5738 5737 5736 5736 5736 5735 5733 5731 5728 5726 5724 5721 5717 5714 5712 5712 5711 5710 5710 5709 5709 5707 5706 5705 5703 5701 5700 5698 5697 5695 5693 5690 5688 5687 5686 5685 5683 5674 5669 5672 5675 5677
5740 5738 5737 5736 5734 5733 5731 5729 5727 5724 5723 5721 5718 5715 5712 5710 5708 5706 5705 5705 5705 5704 5704 5703 5701 5700 5699 5697 5696 5694 5692 5691 5689 5686 5684 5681 5678 5675 5673 5668 5667 5667 5670
5738 5735 5733 5731 5729 5728 5727 5725 5722 5720 5720 5718 5715 5713 5710 5708 5705 5703 5702 5701 5700 5699 5699 5699 5698 5697 5696 5695 5693 5691 5689 5688 5685 5683 5681 5680 5678 5677 5673 5668 5665 5664 5666
5736 5733 5731 5729 5727 5725 5724 5721 5719 5716 5716 5714 5713 5711 5709 5706 5703 5702 5700 5698 5697 5696 5696 5696 5694 5693 5692 5691 5689 5687 5686 5684 5682 5680 5678 5676 5675 5674 5671 5666 5662 5657 5658
5733 5731 5729 5728 5725 5722 5721 5719 5716 5714 5713 5711 5710 5708 5706 5704 5701 5700 5699 5697 5695 5693 5693 5692 5691 5690 5688 5687 5685 5683 5681 5679 5678 5676 5674 5672 5671 5670 5668 5665 5662 5655 5648
5731 5729 5727 5725 5724 5722 5720 5718 5716 5712 5710 5709 5707 5705 5703 5701 5699 5697 5695 5694 5693 5692 5690 5689 5687 5686 5684 5682 5680 5678 5676 5674 5672 5671 5669 5667 5666 5664 5663 5661 5659 5656 5650
5727 5725 5724 5723 5721 5719 5717 5714 5712 5710 5708 5706 5705 5702 5700 5698 5696 5693 5692 5691 5689 5688 5686 5685 5684 5682 5679 5678 5675 5673 5672 5669 5667 5666 5664 5662 5661 5659 5657 5656 5654 5651 5648
5724 5722 5721 5719 5716 5715 5713 5711 5709 5707 5705 5704 5701 5699 5696 5694 5691 5689 5689 5688 5686 5685 5683 5682 5679 5678 5675 5673 5671 5668 5667 5664 5662 5660 5659 5657 5656 5654 5652 5649 5648 5646 5644
5720 5718 5715 5713 5711 5710 5709 5708 5706 5704 5703 5701 5698 5695 5692 5689 5687 5686 5685 5685 5683 5681 5680 5678 5675 5673 5671 5669 5667 5665 5662 5660 5658 5656 5654 5652 5650 5647 5646 5644 5642 5640 5639
5715 5712 5709 5708 5707 5706 5705 5704 5703 5701 5699 5697 5694 5691 5688 5686 5684 5683 5682 5681 5679 5677 5676 5673 5671 5669 5667 5665 5662 5660 5658 5656 5654 5652 5650 5648 5646 5643 5641 5639 5636 5634 5631
5710 5708 5705 5704 5703 5702 5701 5700 5698 5698 5696 5692 5689 5687 5686 5683 5681 5678 5677 5675 5674 5673 5671 5668 5666 5665 5662 5660 5657 5655 5653 5650 5648 5647 5645 5643 5642 5640 5638 5635 5631 5628 5625
5707 5706 5704 5701 5699 5698 5696 5695 5694 5693 5692 5688 5685 5683 5681 5679 5676 5674 5672 5670 5668 5667 5665 5663 5661 5659 5657 5655 5653 5650 5647 5646 5643 5641 5640 5638 5636 5634 5631 5629 5626 5624 5620
5704 5703 5701 5699 5697 5696 5694 5690 5690 5690 5687 5684 5681 5679 5676 5673 5671 5670 5667 5664 5662 5661 5659 5657 5655 5653 5651 5649 5647 5645 5642 5640 5638 5636 5634 5633 5630 5627 5623 5621 5619 5616 5614
5701 5700 5699 5696 5695 5694 5691 5688 5686 5684 5682 5679 5677 5675 5671 5668 5665 5663 5660 5659 5657 5655 5653 5651 5649 5647 5645 5643 5641 5639 5636 5635 5633 5631 5629 5626 5623 5622 5618 5614 5611 5609 5607
5698 5697 5696 5694 5691 5689 5687 5684 5680 5678 5676 5673 5672 5670 5667 5662 5659 5656 5654 5653 5651 5649 5647 5646 5644 5641 5639 5637 5635 5632 5629 5627 5626 5625 5623 5620 5617 5616 5613 5608 5604 5601 5599
5692 5691 5689 5688 5685 5683 5681 5677 5673 5671 5669 5668 5667 5665 5663 5658 5654 5652 5649 5647 5645 5643 5641 5639 5638 5636 5632 5630 5628 5625 5622 5620 5619 5618 5616 5614 5612 5609 5606 5602 5598 5594 5592
5685 5684 5681 5678 5677 5676 5674 5670 5667 5664 5664 5663 5661 5660 5657 5654 5651 5647 5645 5642 5639 5636 5634 5632 5631 5630 5627 5624 5621 5618 5615 5613 5612 5610 5608 5607 5605 5602 5600 5596 5593 5590 5588
5675 5674 5671 5669 5669 5668 5665 5662 5658 5659 5658 5656 5654 5652 5651 5649 5647 5642 5638 5636 5633 5630 5627 5624 5623 5622 5620 5618 5615 5612 5609 5608 5605 5603 5602 5601 5599 5596 5593 5590 5588 5585 5582
5666 5665 5662 5660 5660 5659 5656 5653 5652 5652 5651 5648 5647 5646 5644 5642 5641 5637 5632 5629 5627 5623 5621 5618 5616 5614 5613 5611 5608 5605 5603 5600 5598 5597 5596 5594 5591 5588 5585 5583 5581 5578 5574
5658 5657 5654 5652 5651 5650 5649 5647 5646 5645 5643 5640 5639 5639 5637 5635 5633 5631 5628 5624 5621 5618 5615 5613 5610 5608 5605 5603 5600 5597 5595 5593 5590 5589 5588 5586 5583 5581 5578 5576 5573 5570 5567
5652 5650 5647 5645 5644 5644 5642 5641 5640 5638 5636 5634 5633 5631 5630 5628 5625 5623 5621 5619 5617 5615 5612 5609 5606 5603 5599 5598 5596 5592 5590 5587 5585 5582 5579 5577 5574 5571 5569 5567 5565 5562 5559
5645 5643 5642 5640 5639 5638 5636 5635 5633 5631 5629 5627 5626 5624 5622 5620 5618 5616 5613 5612 5611 5609 5607 5604 5601 5599 5596 5593 5590 5587 5585 5582 5579 5575 5572 5570 5568 5565 5562 5560 5557 5554 5551